GW0834 Weather Reports


Display with metric or nautical units.
time (UTC)temp
F
wind
direction
speed
MPH
gust
MPH
rain 1hr
in
rain 24hr
in
rain mn
in
humidity
%
barometer
mb
20221203182753 61 184 1.0 5.0 0.00 0.00 0.00 30 887.9
20221203182258 61 184 2.0 6.0 0.00 0.00 0.00 30 887.8
20221203182253 61 184 1.0 6.0 0.00 0.00 0.00 30 887.7
20221203181251 61 184 2.0 6.0 0.00 0.00 0.00 30 888.1
20221203181022 60 184 2.0 6.0 0.00 0.00 0.00 29 888.2
20221203180248 61 184 1.0 6.0 0.00 0.00 0.00 29 888.3
20221203175750 61 184 1.0 4.0 0.00 0.00 0.00 29 888.4
20221203175249 60 184 1.0 4.0 0.00 0.00 0.00 29 888.4
20221203174751 60 184 1.0 4.0 0.00 0.00 0.00 29 888.3
20221203174249 60 184 1.0 4.0 0.00 0.00 0.00 30 888.3
20221203174019 60 184 1.0 6.0 0.00 0.00 0.00 30 888.2
20221203173248 59 184 1.0 6.0 0.00 0.00 0.00 30 888.3
20221203172748 59 184 2.0 6.0 0.00 0.00 0.00 31 888.2
20221203172249 59 184 2.0 6.0 0.00 0.00 0.00 31 888.2
20221203172125 59 184 1.0 3.0 0.00 0.00 0.00 32 888.1
20221203171519 58 184 1.0 3.0 0.00 0.00 0.00 32 888.2
20221203171019 58 184 0.0 3.0 0.00 0.00 0.00 32 888.2
20221203170249 58 184 0.0 2.0 0.00 0.00 0.00 32 888.1
20221203165748 58 184 0.0 4.0 0.00 0.00 0.00 32 888.3
20221203165248 58 184 1.0 8.0 0.00 0.00 0.00 32 888.3
20221203164750 57 184 1.0 8.0 0.00 0.00 0.00 33 888.3
20221203164247 57 184 1.0 4.0 0.00 0.00 0.00 34 888.2
20221203163746 57 184 0.0 3.0 0.00 0.00 0.00 34 888.3
20221203163516 57 184 1.0 3.0 0.00 0.00 0.00 34 888.4
20221203162746 57 184 1.0 5.0 0.00 0.00 0.00 33 888.3
20221203162244 56 184 1.0 5.0 0.00 0.00 0.00 34 888.2
20221203161743 56 184 0.0 1.0 0.00 0.00 0.00 36 888.2
20221203161240 56 184 1.0 6.0 0.00 0.00 0.00 36 888.2
20221203161011 55 184 1.0 6.0 0.00 0.00 0.00 36 888.3
20221203160241 55 184 1.0 4.0 0.00 0.00 0.00 37 888.1
20221203155739 55 184 1.0 4.0 0.00 0.00 0.00 36 888.2
20221203155244 55 184 1.0 4.0 0.00 0.00 0.00 37 888.2
20221203154747 55 184 1.0 4.0 0.00 0.00 0.00 37 888.1
20221203154238 54 184 1.0 5.0 0.00 0.00 0.00 38 888.1
20221203153738 54 184 1.0 5.0 0.00 0.00 0.00 37 888.2
20221203153238 54 184 1.0 6.0 0.00 0.00 0.00 38 888.1
20221203152739 54 184 0.0 6.0 0.00 0.00 0.00 38 888.2
20221203152238 53 184 0.0 2.0 0.00 0.00 0.00 39 888.0
20221203151739 53 184 0.0 3.0 0.00 0.00 0.00 40 888.0
20221203151238 53 184 1.0 3.0 0.00 0.00 0.00 40 888.0
20221203150737 53 184 2.0 5.0 0.00 0.00 0.00 40 887.9
20221203150236 53 184 2.0 5.0 0.00 0.00 0.00 40 888.0
20221203145736 53 184 1.0 6.0 0.00 0.00 0.00 41 888.0
20221203145238 53 184 2.0 7.0 0.00 0.00 0.00 42 888.1
20221203144738 53 184 1.0 7.0 0.00 0.00 0.00 42 888.0
20221203144236 52 184 2.0 6.0 0.00 0.00 0.00 42 888.1
20221203143736 52 184 3.0 7.0 0.00 0.00 0.00 43 888.0
20221203143523 51 184 3.0 7.0 0.00 0.00 0.00 44 888.0
20221203142736 51 184 2.0 6.0 0.00 0.00 0.00 46 888.0
20221203142236 49 184 1.0 3.0 0.00 0.00 0.00 49 888.0
20221203142007 47 184 0.0 3.0 0.00 0.00 0.00 53 888.0
20221203141738 47 184 0.0 3.0 0.00 0.00 0.00 53 888.0
20221203141236 46 184 0.0 2.0 0.00 0.00 0.00 55 888.0
20221203140736 45 184 1.0 2.0 0.00 0.00 0.00 58 888.0
20221203140234 45 184 1.0 3.0 0.00 0.00 0.00 60 887.9
20221203135734 44 184 1.0 3.0 0.00 0.00 0.00 60 888.0
20221203135234 44 184 1.0 2.0 0.00 0.00 0.00 62 888.0
20221203135005 44 184 1.0 2.0 0.00 0.00 0.00 62 888.1
20221203134234 44 184 1.0 2.0 0.00 0.00 0.00 61 888.0
20221203133734 44 184 0.0 2.0 0.00 0.00 0.00 62 887.9
20221203133234 44 184 0.0 1.0 0.00 0.00 0.00 62 887.9
20221203132732 45 184 0.0 2.0 0.00 0.00 0.00 62 887.9
20221203132232 46 184 1.0 2.0 0.00 0.00 0.00 60 887.9
20221203132003 46 184 1.0 2.0 0.00 0.00 0.00 59 887.9
20221203131229 47 184 1.0 3.0 0.00 0.00 0.00 57 887.8
20221203130729 47 184 1.0 3.0 0.00 0.00 0.00 55 887.8
20221203130230 47 184 2.0 3.0 0.00 0.00 0.00 57 887.8
20221203125728 46 184 2.0 3.0 0.00 0.00 0.00 58 887.7
20221203125229 46 184 1.0 3.0 0.00 0.00 0.00 58 887.7
20221203124732 46 184 1.0 3.0 0.00 0.00 0.00 61 887.7
20221203124229 45 184 2.0 3.0 0.00 0.00 0.00 61 887.6
20221203123726 45 184 2.0 3.0 0.00 0.00 0.00 62 887.6
20221203123226 45 184 1.0 3.0 0.00 0.00 0.00 62 887.5
20221203122726 46 184 1.0 2.0 0.00 0.00 0.00 62 887.5
20221203122224 46 184 1.0 3.0 0.00 0.00 0.00 61 887.5
20221203121952 46 184 1.0 3.0 0.00 0.00 0.00 62 887.5
20221203121221 45 184 1.0 2.0 0.00 0.00 0.00 64 887.4
20221203120722 44 184 0.0 2.0 0.00 0.00 0.00 65 887.4
20221203120221 44 184 0.0 2.0 0.00 0.00 0.00 67 887.5
20221203115721 44 184 1.0 3.0 0.00 0.00 0.00 68 887.5
20221203115452 43 184 1.0 3.0 0.00 0.00 0.00 69 887.5
20221203114952 43 184 1.0 3.0 0.00 0.00 0.00 70 887.5
20221203114222 43 184 1.0 3.0 0.00 0.00 0.00 71 887.5
20221203113722 43 184 1.0 2.0 0.00 0.00 0.00 71 887.4
20221203113452 43 184 1.0 2.0 0.00 0.00 0.00 71 887.6
20221203112952 42 184 1.0 2.0 0.00 0.00 0.00 72 887.4
20221203112832 43 184 1.0 2.0 0.00 0.00 0.00 72 887.3
20221203111721 42 184 1.0 2.0 0.00 0.00 0.00 72 887.4
20221203111223 43 184 1.0 2.0 0.00 0.00 0.00 71 887.5
20221203110722 43 184 0.0 2.0 0.00 0.00 0.00 72 887.4
20221203110452 43 184 0.0 2.0 0.00 0.00 0.00 72 887.5
20221203105952 43 184 1.0 2.0 0.00 0.00 0.00 72 887.5
20221203105223 44 184 2.0 3.0 0.00 0.00 0.00 71 887.4
20221203104721 44 184 2.0 3.0 0.00 0.00 0.00 71 887.3
20221203104219 43 184 1.0 3.0 0.00 0.00 0.00 72 887.3
20221203103720 43 184 2.0 3.0 0.00 0.00 0.00 72 887.4
20221203103219 44 184 2.0 4.0 0.00 0.00 0.00 72 887.4
20221203102720 43 184 2.0 4.0 0.00 0.00 0.00 73 887.4
20221203102430 43 184 2.0 4.0 0.00 0.00 0.00 74 887.4
20221203102305 43 184 2.0 4.0 0.00 0.00 0.00 74 887.4
20221203101217 42 184 1.0 2.0 0.00 0.00 0.00 76 887.4
20221203100717 42 184 1.0 3.0 0.00 0.00 0.00 77 887.6
20221203100217 42 184 1.0 3.0 0.00 0.00 0.00 77 887.6
20221203095717 42 184 1.0 2.0 0.00 0.00 0.00 78 887.6
20221203095220 42 184 1.0 3.0 0.00 0.00 0.00 78 887.6
20221203094717 42 184 1.0 3.0 0.00 0.00 0.00 78 887.7
20221203094217 42 184 1.0 2.0 0.00 0.00 0.00 78 887.8
20221203093717 42 184 1.0 2.0 0.00 0.00 0.00 79 887.8
20221203093215 42 184 0.0 2.0 0.00 0.00 0.00 80 887.8
20221203092747 42 184 1.0 2.0 0.00 0.00 0.00 81 887.7
20221203092715 42 184 1.0 2.0 0.00 0.00 0.00 80 887.7
20221203091715 41 184 1.0 2.0 0.00 0.00 0.00 82 887.6
20221203091215 41 184 1.0 2.0 0.00 0.00 0.00 81 887.6
20221203090715 41 184 1.0 2.0 0.00 0.00 0.00 82 887.5
20221203090215 41 184 1.0 3.0 0.00 0.00 0.00 81 887.5
20221203085716 41 184 1.0 3.0 0.00 0.00 0.00 82 887.6
20221203085214 41 184 1.0 3.0 0.00 0.00 0.00 81 887.5
20221203084712 41 184 0.0 2.0 0.00 0.00 0.00 81 887.7
20221203084213 42 184 0.0 2.0 0.00 0.00 0.00 81 887.6
20221203083713 42 184 0.0 1.0 0.00 0.00 0.00 81 887.6
20221203083211 42 184 0.0 2.0 0.00 0.00 0.00 81 887.7
20221203082942 42 184 0.0 2.0 0.00 0.00 0.00 81 887.7
20221203082209 41 184 0.0 2.0 0.00 0.00 0.00 81 887.6
20221203081709 42 184 0.0 2.0 0.00 0.00 0.00 80 887.6
20221203081212 42 184 1.0 3.0 0.00 0.00 0.00 80 887.7
20221203080709 42 184 1.0 3.0 0.00 0.00 0.00 80 887.7
20221203080209 42 184 1.0 3.0 0.00 0.00 0.00 80 887.7
20221203075708 42 184 2.0 3.0 0.00 0.00 0.00 79 887.8
20221203075206 42 184 2.0 3.0 0.00 0.00 0.00 80 887.8
20221203074707 42 184 2.0 3.0 0.00 0.00 0.00 80 887.8
20221203074209 42 184 2.0 3.0 0.00 0.00 0.00 80 887.8
20221203073705 42 184 1.0 2.0 0.00 0.00 0.00 80 887.7
20221203073203 42 184 1.0 3.0 0.00 0.00 0.00 80 887.8
20221203072703 43 184 2.0 4.0 0.00 0.00 0.00 79 887.8
20221203072204 43 184 2.0 4.0 0.00 0.00 0.00 80 887.8
20221203071703 42 184 1.0 4.0 0.00 0.00 0.00 80 887.7
20221203071214 43 184 1.0 3.0 0.00 0.00 0.00 79 887.7
20221203070700 43 184 2.0 3.0 0.00 0.00 0.00 79 887.7
20221203070158 43 184 2.0 3.0 0.00 0.00 0.00 79 887.7
20221203065659 43 184 1.0 3.0 0.00 0.00 0.00 80 887.8
20221203065157 43 184 1.0 3.0 0.00 0.00 0.00 79 887.6
20221203064657 43 184 1.0 2.0 0.00 0.00 0.00 80 887.6
20221203064157 42 184 1.0 2.0 0.00 0.00 0.00 80 887.6
20221203063657 43 184 1.0 3.0 0.00 0.00 0.00 79 887.5
20221203063157 43 184 1.0 3.0 0.00 0.00 0.00 79 887.5
20221203063023 42 184 1.0 2.0 0.00 0.00 0.00 80 887.5
20221203062739 43 184 1.0 3.0 0.00 0.00 0.00 79 887.5
20221203061656 42 184 1.0 2.0 0.00 0.00 0.00 80 887.5
20221203061155 42 184 1.0 2.0 0.00 0.00 0.00 80 887.4
20221203060656 42 184 1.0 2.0 0.00 0.00 0.00 80 887.4
20221203060155 42 184 1.0 2.0 0.00 0.00 0.00 79 887.4
20221203055656 42 184 1.0 2.0 0.00 0.00 0.00 78 887.4
20221203055152 43 184 2.0 4.0 0.00 0.00 0.00 78 887.4
20221203054650 43 184 2.0 4.0 0.00 0.00 0.00 78 887.5
20221203054151 43 184 1.0 3.0 0.00 0.00 0.00 79 887.5
20221203053650 43 184 0.0 2.0 0.00 0.00 0.00 78 887.4
20221203053146 43 184 0.0 2.0 0.00 0.00 0.00 78 887.4
20221203052648 43 184 1.0 2.0 0.00 0.00 0.00 78 887.4
20221203052147 43 184 1.0 2.0 0.00 0.00 0.00 78 887.5
20221203051646 44 184 1.0 5.0 0.00 0.00 0.00 77 887.4
20221203051147 44 184 2.0 5.0 0.00 0.00 0.00 76 887.4
20221203050646 44 184 1.0 4.0 0.00 0.00 0.00 76 887.5
20221203050149 44 184 2.0 4.0 0.00 0.00 0.00 75 887.6
20221203045941 44 184 2.0 4.0 0.00 0.00 0.00 76 887.5
20221203045146 44 184 2.0 4.0 0.00 0.00 0.00 75 887.5
20221203044646 45 184 2.0 4.0 0.00 0.00 0.00 74 887.5
20221203044146 44 184 2.0 4.0 0.00 0.00 0.00 75 887.5
20221203043918 44 184 2.0 4.0 0.00 0.00 0.00 75 887.5
20221203043146 44 184 2.0 4.0 0.00 0.00 0.00 75 887.4
20221203042646 45 184 2.0 4.0 0.00 0.00 0.00 74 887.4
20221203042146 44 184 1.0 4.0 0.00 0.00 0.00 75 887.5
20221203041647 45 184 1.0 2.0 0.00 0.00 0.00 74 887.3
20221203041144 45 184 2.0 4.0 0.00 0.00 0.00 74 887.3
20221203040645 45 184 2.0 4.0 0.00 0.00 0.00 74 887.2
20221203040145 45 184 1.0 4.0 0.00 0.00 0.00 74 887.1
20221203035644 45 184 1.0 3.0 0.00 0.00 0.00 74 887.2
20221203035144 45 184 1.0 3.0 0.00 0.00 0.00 74 886.9
20221203034916 45 184 1.0 2.0 0.00 0.00 0.00 74 887.1
20221203034145 45 184 1.0 3.0 0.00 0.00 0.00 73 887.0
20221203033649 45 184 2.0 3.0 0.00 0.00 0.00 73 887.1
20221203033415 45 184 3.0 4.0 0.00 0.00 0.00 73 887.1
20221203032926 45 184 2.0 4.0 0.00 0.00 0.00 72 887.1
20221203032144 45 184 1.0 4.0 0.00 0.00 0.00 73 887.1
20221203031644 45 184 1.0 4.0 0.00 0.00 0.00 72 887.1
20221203031144 46 184 1.0 4.0 0.00 0.00 0.00 71 887.1
20221203030644 46 184 2.0 5.0 0.00 0.00 0.00 71 887.1
20221203030145 46 184 2.0 5.0 0.00 0.00 0.00 71 887.0
20221203025645 47 184 2.0 4.0 0.00 0.00 0.00 70 887.0
20221203025144 47 184 1.0 3.0 0.00 0.00 0.00 70 887.0
20221203024930 47 184 1.0 2.0 0.00 0.00 0.00 70 886.9
20221203024415 48 184 0.0 1.0 0.00 0.00 0.00 68 887.0
20221203023642 48 184 1.0 3.0 0.00 0.00 0.00 68 887.0
20221203023143 48 184 1.0 3.0 0.00 0.00 0.00 68 887.0
20221203022643 48 184 0.0 2.0 0.00 0.00 0.00 68 886.8
20221203022142 49 184 0.0 1.0 0.00 0.00 0.00 66 886.6
20221203021642 50 184 1.0 2.0 0.00 0.00 0.00 65 886.7
20221203021414 50 184 1.0 3.0 0.00 0.00 0.00 65 886.6
20221203020642 50 184 2.0 3.0 0.00 0.00 0.00 64 886.5
20221203020142 50 184 1.0 3.0 0.00 0.00 0.00 64 886.5
20221203015642 50 184 0.0 3.0 0.00 0.00 0.00 64 886.4
20221203015141 51 184 0.0 1.0 0.00 0.00 0.00 63 886.4
20221203014642 51 184 0.0 1.0 0.00 0.00 0.00 63 886.4
20221203014142 51 184 0.0 1.0 0.00 0.00 0.00 62 886.3
20221203013917 51 184 0.0 1.0 0.00 0.00 0.00 62 886.4
20221203013142 51 184 0.0 1.0 0.00 0.00 0.00 62 886.4
20221203012642 52 184 0.0 0.0 0.00 0.00 0.00 61 886.4
20221203012414 52 184 0.0 0.0 0.00 0.00 0.00 61 886.4
20221203011640 52 184 0.0 0.0 0.00 0.00 0.00 61 886.2
20221203011139 52 184 0.0 0.0 0.00 0.00 0.00 60 886.1
20221203010638 53 184 0.0 3.0 0.00 0.00 0.00 60 886.1
20221203010408 53 184 0.0 3.0 0.00 0.00 0.00 60 886.1
20221203005636 53 184 0.0 0.0 0.00 0.00 0.00 59 886.1
20221203005136 54 184 0.0 0.0 0.00 0.00 0.00 61 886.1
20221203004636 54 184 0.0 0.0 0.00 0.00 0.00 61 886.0
20221203004136 54 184 0.0 0.0 0.00 0.00 0.00 61 885.9
20221203003638 54 184 0.0 0.0 0.00 0.00 0.00 61 886.1
20221203003136 54 184 0.0 0.0 0.00 0.00 0.00 60 886.0
20221203002636 54 184 0.0 0.0 0.00 0.00 0.00 60 885.9
20221203002135 55 184 0.0 1.0 0.00 0.00 0.00 60 885.9
20221203001635 55 184 0.0 2.0 0.00 0.00 0.00 60 885.9
20221203001135 55 184 1.0 4.0 0.00 0.00 0.00 59 885.9
20221203000637 55 184 1.0 4.0 0.00 0.00 0.00 59 885.9
20221203000135 55 184 0.0 2.0 0.00 0.00 0.00 59 886.0
20221202235635 55 184 0.0 3.0 0.00 0.00 0.00 58 886.1
20221202235137 55 184 1.0 3.0 0.00 0.00 0.00 58 886.0
20221202234635 55 184 0.0 3.0 0.00 0.00 0.00 58 886.0
20221202234136 55 184 1.0 3.0 0.00 0.00 0.00 58 886.0
20221202233633 55 184 1.0 3.0 0.00 0.00 0.00 58 885.9
20221202233134 56 184 0.0 2.0 0.00 0.00 0.00 58 885.9
20221202232634 56 184 1.0 3.0 0.00 0.00 0.00 58 885.9
20221202232130 56 184 1.0 3.0 0.00 0.00 0.00 57 885.9
20221202231631 56 184 1.0 3.0 0.00 0.00 0.00 57 885.8
20221202231129 56 184 1.0 3.0 0.00 0.00 0.00 57 885.9
20221202230648 56 184 1.0 3.0 0.00 0.00 0.00 56 886.0
20221202230129 56 184 0.0 2.0 0.00 0.00 0.00 56 885.9
20221202225901 56 184 1.0 4.0 0.00 0.00 0.00 56 885.9
20221202225400 56 184 1.0 4.0 0.00 0.00 0.00 56 885.9
20221202225130 56 184 1.0 4.0 0.00 0.00 0.00 56 885.9
20221202224629 56 184 1.0 5.0 0.00 0.00 0.00 55 885.9
20221202224131 57 184 2.0 5.0 0.00 0.00 0.00 55 885.9
20221202223628 57 184 1.0 4.0 0.00 0.00 0.00 55 885.9
20221202223127 56 184 2.0 5.0 0.00 0.00 0.00 55 886.0
20221202222631 57 184 1.0 4.0 0.00 0.00 0.00 55 885.9
20221202222627 57 184 2.0 5.0 0.00 0.00 0.00 55 885.9
20221202221627 57 184 1.0 5.0 0.00 0.00 0.00 54 885.9
20221202221127 57 184 1.0 5.0 0.00 0.00 0.00 55 885.9
20221202220857 57 184 2.0 4.0 0.00 0.00 0.00 54 885.9
20221202220128 57 184 1.0 5.0 0.00 0.00 0.00 54 885.9
20221202215627 57 184 1.0 5.0 0.00 0.00 0.00 55 886.0
20221202215127 57 184 1.0 4.0 0.00 0.00 0.00 53 886.0
20221202214627 58 184 1.0 3.0 0.00 0.00 0.00 54 885.9
20221202214128 58 184 1.0 5.0 0.00 0.00 0.00 53 885.9
20221202213624 58 184 2.0 7.0 0.00 0.00 0.00 54 885.9
20221202213125 58 184 2.0 7.0 0.00 0.00 0.00 53 885.9
20221202212625 58 184 3.0 6.0 0.00 0.00 0.00 54 885.9
20221202212124 58 184 2.0 7.0 0.00 0.00 0.00 52 885.8
20221202211623 58 184 1.0 7.0 0.00 0.00 0.00 52 885.8
20221202211123 58 184 1.0 3.0 0.00 0.00 0.00 52 885.9
20221202210624 58 184 1.0 3.0 0.00 0.00 0.00 52 885.9
20221202210355 58 184 1.0 3.0 0.00 0.00 0.00 48 885.9
20221202205623 58 184 0.0 2.0 0.00 0.00 0.00 50 885.9
20221202205123 58 184 1.0 2.0 0.00 0.00 0.00 48 885.9
20221202204857 58 184 1.0 5.0 0.00 0.00 0.00 48 885.8
20221202204120 58 184 2.0 8.0 0.00 0.00 0.00 50 885.8
20221202203621 58 184 2.0 8.0 0.00 0.00 0.00 50 885.9
20221202203119 58 184 0.0 5.0 0.00 0.00 0.00 52 885.9
20221202202619 59 184 0.0 2.0 0.00 0.00 0.00 52 885.8
20221202202118 59 184 1.0 4.0 0.00 0.00 0.00 53 885.9
20221202201619 59 184 1.0 4.0 0.00 0.00 0.00 53 885.9
20221202201117 59 184 1.0 3.0 0.00 0.00 0.00 52 886.0
20221202200620 59 184 1.0 4.0 0.00 0.00 0.00 53 886.1
20221202200116 59 184 1.0 4.0 0.00 0.00 0.00 53 886.1
20221202195846 58 184 1.0 6.0 0.00 0.00 0.00 54 886.1
20221202195346 58 184 1.0 6.0 0.00 0.00 0.00 54 886.1
20221202194616 58 184 1.0 3.0 0.00 0.00 0.00 55 886.1
20221202194112 58 184 1.0 5.0 0.00 0.00 0.00 56 886.2
20221202193613 57 184 1.0 5.0 0.00 0.00 0.00 55 886.2
20221202193114 57 184 1.0 6.0 0.00 0.00 0.00 56 886.2
20221202192613 57 184 2.0 6.0 0.00 0.00 0.00 55 886.2
20221202192112 57 184 1.0 6.0 0.00 0.00 0.00 55 886.3
20221202191859 57 184 1.0 6.0 0.00 0.00 0.00 55 886.4
20221202191115 57 184 2.0 7.0 0.00 0.00 0.00 55 886.3
20221202190843 58 184 2.0 7.0 0.00 0.00 0.00 55 886.4
20221202190113 57 184 2.0 6.0 0.00 0.00 0.00 57 886.6
20221202185916 57 184 2.0 7.0 0.00 0.00 0.00 57 886.6
20221202185119 56 184 2.0 7.0 0.00 0.00 0.00 57 886.6
20221202184624 56 184 1.0 4.0 0.00 0.00 0.00 57 886.7
20221202184117 56 184 2.0 7.0 0.00 0.00 0.00 58 886.7
20221202183842 56 184 1.0 7.0 0.00 0.00 0.00 59 886.7
20221202183108 55 184 1.0 5.0 0.00 0.00 0.00 59 886.7